Location: Aiyekoto
(8.4333°N, 4.3667°E)
Time: 13:38:01
(UTC+00:00)

Skynet4D Del rocket - Pass Details

Date: 07 June 2020
Orbit: 763 x 1291 km, 26.9° (Epoch: 07 July)

Event Time Altitude Azimuth Distance (km) Brightness Sun altitude
Exits shadow 04:10:11 - 299° (WNW) 2,994 6.2 -17.3°
Reaches altitude 10° 04:11:19 10° 300° (WNW) 2,579 5.9 -17.0°
Maximum altitude 04:17:25 79° 27° (NNE) 843 3.7 -15.7°
Drops below altitude 10° 04:22:54 10° 113° (ESE) 2,326 6.6 -14.5°
Sets 04:25:17 0° 115° (ESE) 3,226 7.3 -13.9°
